Regional Weather Roundup
Issued by NWS

Home | Current Version | Previous Version | Text Only | Print | Product List | Glossary Off
Versions: 1 2 3 4 5 6 7 8 9 10 11 12 13 14 15 16 17 18 19 20 21 22 23 24 25 26 27 28 29 30 31 32 33 34 35 36 37 38 39 40 41 42 43 44 45 46 47 48 49 50

000
ASUS43 KDTX 282001
RWRMI
MICHIGAN HOURLY REGIONAL WEATHER ROUNDUP
NATIONAL WEATHER SERVICE DETROIT/PONTIAC MI
400 PM EDT THU AUG 28 2014

NOTE: "FAIR" INDICATES FEW OR NO CLOUDS BELOW 12,000 FEET WITH NO
SIGNIFICANT WEATHER AND/OR OBSTRUCTION TO VISIBILITY.

MIZ047>049-052>055-059>063-066>070-074>076-081>083-282100-
SOUTHEAST LOWER MICHIGAN

CITY           SKY/WX    TMP DP  RH WIND       PRES   REMARKS
ADRIAN         MOSUNNY   75  55  49 VRB3      30.13F
ALMA           SUNNY     70  45  39 CALM      30.15F
ANN ARBOR      SUNNY     73  51  46 NW7       30.12F
BAD AXE        MOSUNNY   69  50  49 CALM      30.15F
CARO           MOSUNNY   70  53  54 CALM      30.13F
DETROIT CITY   SUNNY     74  53  48 NE6       30.13F
DETROIT        MOSUNNY   74  50  42 VRB3      30.13F
FLINT          SUNNY     74  49  41 CALM      30.14F
GROSSE ILE     SUNNY     72  54  53 E5        30.13R
HILLSDALE      MOSUNNY   74  54  48 CALM      30.12F
HOWELL         SUNNY     70  48  45 N5        30.14F

CITY           SKY/WX    TMP DP  RH WIND       PRES   REMARKS
JACKSON        SUNNY     75  55  49 CALM      30.13F
LAMBERTVILLE   SUNNY     73  55  53 E6        30.13F
LANSING        SUNNY     72  47  40 CALM      30.14F
LAPEER         FAIR      69  50  49 NE3       30.14F
MASON          SUNNY     71  52  51 NE5       30.14S
MONROE         PTSUNNY   72  55  56 S3        30.12S
MT. CLEMENS    PTSUNNY   71  53  52 E3        30.12F
PONTIAC        MOSUNNY   70  49  47 CALM      30.13F
PORT HOPE        N/A     65  53  65 N7        30.15F
PORT HURON     MOSUNNY   68  55  64 NE6       30.15S
TRI CITIES     SUNNY     71  51  49 NE5       30.15F
TROY           SUNNY     72  48  41 NE3       30.15S
SAGINAW HB     MOSUNNY   70  52  52 CALM      30.14S
$$
MIZ043>046-050>051-056>058-064>065-071>073-077>080-282100-
SOUTHWEST LOWER MICHIGAN

CITY           SKY/WX    TMP DP  RH WIND       PRES   REMARKS
BATTLE CREEK   MOSUNNY   75  56  51 NE9       30.13F
BENTON HARBOR  SUNNY     78  58  49 VRB6      30.08F
BIG RAPIDS     PTSUNNY   71  53  53 CALM      30.14F
COLDWATER      MOSUNNY   78  57  48 NE5       30.11F
FREMONT        FAIR      73  45  36 NE3       30.12F
HOLLAND        SUNNY     76  56  49 MISG      30.12F
GRAND RAPIDS   PTSUNNY   73  55  53 CALM      30.14F
IONIA          FAIR      72  47  41 CALM      30.13F
KALAMAZOO      PTSUNNY   76  55  48 VRB5      30.12F
LUDINGTON      MOSUNNY   74  59  59 NW5       30.13F
MARSHALL       SUNNY     74  56  52 E3        30.12F
MOUNT PLEASANT SUNNY     71  45  40 CALM      30.14F
MUSKEGON       PTSUNNY   75  50  41 SE8       30.12F
SOUTH HAVEN    MOSUNNY   77  59  54 E7        30.10F
$$
MIZ016>042-282100-
NORTHERN LOWER MICHIGAN

CITY           SKY/WX    TMP DP  RH WIND       PRES   REMARKS
ALPENA         MOSUNNY   67  49  52 S6        30.15F
BEAVER ISLAND  SUNNY     68  51  54 W5        30.16F
BELLAIRE       CLOUDY    70  51  52 CALM      30.14F
CADILLAC       PTSUNNY   68  50  52 CALM      30.14F
CHARLEVOIX     SUNNY     66  47  50 NW6       30.19S
FRANKFORT      CLOUDY    69  51  53 N6        30.14F
GAYLORD        MOSUNNY   67  44  43 NW3       30.16F
GRAYLING       PTSUNNY   71  48  43 CALM      30.15F
HARBOR SPRINGS CLOUDY    68  50  52 SW8       30.15F
HOUGHTON LAKE  FAIR      70  48  45 W6        30.15F
MANISTEE       PTSUNNY   70  52  52 NW12      30.14F
OSCODA         MOSUNNY   66  53  61 E7        30.15F
PELLSTON       CLOUDY    67  46  47 W3        30.15F
TRAVERSE CITY  PTSUNNY   70  48  45 VRB7      30.14F
$$
MIZ007>008-015-282100-
EASTERN UPPER MICHIGAN

CITY           SKY/WX    TMP DP  RH WIND       PRES   REMARKS
KINROSS        SUNNY     66  45  45 NW9       30.15S
MACKINAC ISLAN SUNNY     64  46  52 SW3       30.15S
NEWBERRY       MOSUNNY   68  45  42 CALM      30.13F
S. S. MARIE    SUNNY     68  44  42 NW7       30.14F
$$
MIZ004>006-011>014-085-282100-
CENTRAL UPPER MICHIGAN

CITY           SKY/WX    TMP DP  RH WIND       PRES   REMARKS
MANISTIQUE     MOSUNNY   65  52  60 S10       30.15F
ESCANABA       CLOUDY    64  52  63 SE12      30.14F
MENOMINEE      CLOUDY    66  55  68 SE12      30.11F
SAWYER-GWINN   MOSUNNY   68  48  49 CALM      30.13F
$$
MIZ001>003-009>011-084-282100-
WESTERN UPPER MICHIGAN

CITY           SKY/WX    TMP DP  RH WIND       PRES   REMARKS
IRON MOUNTAIN  MOSUNNY   72  51  47 S8        30.10F
HOUGHTON       SUNNY     68  49  50 SE12      30.09F
COPPER HARBOR    N/A     68  44  42 SW10      30.10F
$$

ABBREVIATIONS USED IN REMARKS
   TC - TEMPERATURE IN CELSIUS
  WCI - WIND CHILL INDEX
   HX - HEAT INDEX
  VSB - VISIBILITY



USA.gov is the U.S. government's official web portal to all federal, state and local government web resources and services.